Location: Invercargill
(46.4000°S, 168.3500°E)
Time: 23:45:41
(UTC+13:00)

Cosmos 405 Rocket - Pass Details

Date: 06 October 2021
Orbit: 488 x 552 km, 81.3° (Epoch: 17 October)

Event Time Altitude Azimuth Distance (km) Brightness Sun altitude
Exits shadow 23:15:55 17° 164° (SSE) 1,461 5.3 -29.9°
Drops below altitude 10° 23:16:57 10° 166° (SSE) 1,872 5.9 -30.0°
Sets 23:19:08 0° 167° (SSE) 2,772 6.9 -30.2°
